Time,TemperatureF,DewpointF,PressureIn,WindDirection,WindDirectionDegrees,WindSpeedMPH,WindSpeedGustMPH,Humidity,HourlyPrecipIn,Conditions,Clouds,dailyrainin,SolarRadiationWatts/m^2,SoftwareType,DateUTC
2013-04-22 00:01:00,46.5,38.0,30.50,ESE,103,2.0,3.0,72,0.00,,,0.00,0,WeatherCatV1.10B1570,2013-04-22 04:01:00,
2013-04-22 00:06:00,46.3,37.8,30.50,ESE,105,1.0,3.0,72,0.00,,,0.00,0,WeatherCatV1.10B1570,2013-04-22 04:06:00,
2013-04-22 00:11:00,46.2,37.7,30.50,East,95,0.0,3.0,72,0.00,,,0.00,0,WeatherCatV1.10B1570,2013-04-22 04:11:00,
2013-04-22 00:16:00,46.1,37.6,30.50,East,90,2.0,2.0,72,0.00,,,0.00,0,WeatherCatV1.10B1570,2013-04-22 04:16:00,
2013-04-22 00:21:00,46.0,37.8,30.50,ESE,106,4.0,4.0,73,0.00,,,0.00,0,WeatherCatV1.10B1570,2013-04-22 04:21:00,
2013-04-22 00:26:00,45.8,37.6,30.50,East,90,2.0,3.0,73,0.00,,,0.00,0,WeatherCatV1.10B1570,2013-04-22 04:26:00,
2013-04-22 00:31:00,45.7,37.5,30.50,East,85,2.0,3.0,73,0.00,,,0.00,0,WeatherCatV1.10B1570,2013-04-22 04:31:00,
2013-04-22 00:36:00,45.6,37.8,30.50,ESE,111,0.0,2.0,74,0.00,,,0.00,0,WeatherCatV1.10B1570,2013-04-22 04:36:00,
2013-04-22 00:41:00,45.4,37.6,30.50,East,85,3.0,3.0,74,0.00,,,0.00,0,WeatherCatV1.10B1570,2013-04-22 04:41:00,
2013-04-22 00:46:00,45.2,37.4,30.50,ENE,73,0.0,3.0,74,0.00,,,0.00,0,WeatherCatV1.10B1570,2013-04-22 04:46:00,
2013-04-22 00:51:00,45.2,37.4,30.50,ENE,78,3.0,5.0,74,0.00,,,0.00,0,WeatherCatV1.10B1570,2013-04-22 04:51:00,
2013-04-22 00:56:00,45.1,37.3,30.50,East,101,2.0,4.0,74,0.00,,,0.00,0,WeatherCatV1.10B1570,2013-04-22 04:56:00,
2013-04-22 01:01:00,45.0,37.2,30.50,ESE,109,2.0,3.0,74,0.00,,,0.00,0,WeatherCatV1.10B1570,2013-04-22 05:01:00,
2013-04-22 01:06:00,44.8,37.4,30.50,East,80,4.0,4.0,75,0.00,,,0.00,0,WeatherCatV1.10B1570,2013-04-22 05:06:00,
2013-04-22 01:11:00,44.7,37.3,30.50,ENE,78,2.0,4.0,75,0.00,,,0.00,0,WeatherCatV1.10B1570,2013-04-22 05:11:00,
2013-04-22 01:16:00,44.5,37.4,30.50,ESE,105,1.0,4.0,76,0.00,,,0.00,0,WeatherCatV1.10B1570,2013-04-22 05:16:00,
2013-04-22 01:21:00,44.3,37.2,30.50,East,90,4.0,4.0,76,0.00,,,0.00,0,WeatherCatV1.10B1570,2013-04-22 05:21:00,
2013-04-22 01:26:00,44.2,37.1,30.50,East,99,1.0,2.0,76,0.00,,,0.00,0,WeatherCatV1.10B1570,2013-04-22 05:26:00,
2013-04-22 01:31:00,44.0,37.3,30.50,ENE,78,1.0,3.0,77,0.00,,,0.00,0,WeatherCatV1.10B1570,2013-04-22 05:31:00,
2013-04-22 01:36:00,43.8,37.1,30.50,ESE,105,1.0,3.0,77,0.00,,,0.00,0,WeatherCatV1.10B1570,2013-04-22 05:36:00,
2013-04-22 01:41:00,43.7,37.0,30.50,East,85,2.0,4.0,77,0.00,,,0.00,0,WeatherCatV1.10B1570,2013-04-22 05:41:00,
2013-04-22 01:46:00,43.6,36.5,30.49,ESE,109,3.0,5.0,76,0.00,,,0.00,0,WeatherCatV1.10B1570,2013-04-22 05:46:00,
2013-04-22 01:51:00,43.6,36.5,30.50,ENE,61,2.0,4.0,76,0.00,,,0.00,0,WeatherCatV1.10B1570,2013-04-22 05:51:00,
2013-04-22 01:56:00,43.5,36.8,30.49,East,90,0.0,2.0,77,0.00,,,0.00,0,WeatherCatV1.10B1570,2013-04-22 05:56:00,
2013-04-22 02:01:00,43.4,36.7,30.49,East,79,1.0,2.0,77,0.00,,,0.00,0,WeatherCatV1.10B1570,2013-04-22 06:01:00,
2013-04-22 02:06:00,43.2,36.8,30.49,SE,127,3.0,6.0,78,0.00,,,0.00,0,WeatherCatV1.10B1570,2013-04-22 06:06:00,
2013-04-22 02:11:00,43.0,36.6,30.49,ESE,112,4.0,6.0,78,0.00,,,0.00,0,WeatherCatV1.10B1570,2013-04-22 06:11:00,
2013-04-22 02:16:00,42.9,36.2,30.49,East,85,4.0,7.0,77,0.00,,,0.00,0,WeatherCatV1.10B1570,2013-04-22 06:16:00,
2013-04-22 02:21:00,42.8,36.1,30.49,East,101,4.0,6.0,77,0.00,,,0.00,0,WeatherCatV1.10B1570,2013-04-22 06:21:00,
2013-04-22 02:26:00,42.7,36.0,30.49,East,100,0.0,2.0,77,0.00,,,0.00,0,WeatherCatV1.10B1570,2013-04-22 06:26:00,
2013-04-22 02:31:00,42.5,35.8,30.48,ESE,112,4.0,5.0,77,0.00,,,0.00,0,WeatherCatV1.10B1570,2013-04-22 06:31:00,
2013-04-22 02:36:00,42.4,36.0,30.48,ENE,71,3.0,4.0,78,0.00,,,0.00,0,WeatherCatV1.10B1570,2013-04-22 06:36:00,
2013-04-22 02:41:00,42.3,35.6,30.48,ENE,73,2.0,3.0,77,0.00,,,0.00,0,WeatherCatV1.10B1570,2013-04-22 06:41:00,
2013-04-22 02:46:00,42.2,35.5,30.48,ESE,119,1.0,4.0,77,0.00,,,0.00,0,WeatherCatV1.10B1570,2013-04-22 06:46:00,
2013-04-22 02:51:00,41.9,35.2,30.48,East,99,2.0,3.0,77,0.00,,,0.00,0,WeatherCatV1.10B1570,2013-04-22 06:51:00,
2013-04-22 02:56:00,41.8,35.5,30.48,East,95,2.0,3.0,78,0.00,,,0.00,0,WeatherCatV1.10B1570,2013-04-22 06:56:00,
2013-04-22 03:01:00,41.6,34.9,30.48,ESE,110,3.0,5.0,77,0.00,,,0.00,0,WeatherCatV1.10B1570,2013-04-22 07:01:00,
2013-04-22 03:06:00,41.6,34.9,30.47,East,99,2.0,5.0,77,0.00,,,0.00,0,WeatherCatV1.10B1570,2013-04-22 07:06:00,
2013-04-22 03:11:00,41.5,34.8,30.48,ENE,70,2.0,3.0,77,0.00,,,0.00,0,WeatherCatV1.10B1570,2013-04-22 07:11:00,
2013-04-22 03:16:00,41.4,34.7,30.47,NNE,32,1.0,2.0,77,0.00,,,0.00,0,WeatherCatV1.10B1570,2013-04-22 07:16:00,
2013-04-22 03:21:00,41.2,34.5,30.48,East,79,2.0,8.0,77,0.00,,,0.00,0,WeatherCatV1.10B1570,2013-04-22 07:21:00,
2013-04-22 03:26:00,41.0,34.7,30.47,ENE,74,3.0,5.0,78,0.00,,,0.00,0,WeatherCatV1.10B1570,2013-04-22 07:26:00,
2013-04-22 03:31:00,40.9,34.6,30.47,East,101,2.0,2.0,78,0.00,,,0.00,0,WeatherCatV1.10B1570,2013-04-22 07:31:00,
2013-04-22 03:36:00,40.7,34.4,30.47,ENE,78,1.0,2.0,78,0.00,,,0.00,0,WeatherCatV1.10B1570,2013-04-22 07:36:00,
2013-04-22 03:41:00,40.6,34.3,30.47,ENE,74,5.0,7.0,78,0.00,,,0.00,0,WeatherCatV1.10B1570,2013-04-22 07:41:00,
2013-04-22 03:46:00,40.4,34.4,30.47,NE,37,5.0,5.0,79,0.00,,,0.00,0,WeatherCatV1.10B1570,2013-04-22 07:46:00,
2013-04-22 03:51:00,40.3,34.6,30.47,ENE,64,0.0,0.0,80,0.00,,,0.00,0,WeatherCatV1.10B1570,2013-04-22 07:51:00,
2013-04-22 03:56:00,40.1,34.7,30.47,East,101,2.0,5.0,81,0.00,,,0.00,0,WeatherCatV1.10B1570,2013-04-22 07:56:00,
2013-04-22 04:01:00,39.9,34.6,30.47,ESE,103,4.0,7.0,81,0.00,,,0.00,0,WeatherCatV1.10B1570,2013-04-22 08:01:00,
2013-04-22 04:06:00,39.8,34.1,30.47,NE,55,1.0,3.0,80,0.00,,,0.00,0,WeatherCatV1.10B1570,2013-04-22 08:06:00,
2013-04-22 04:11:00,39.7,34.0,30.47,East,95,4.0,4.0,80,0.00,,,0.00,0,WeatherCatV1.10B1570,2013-04-22 08:11:00,
2013-04-22 04:16:00,39.5,34.2,30.46,NE,53,1.0,2.0,81,0.00,,,0.00,0,WeatherCatV1.10B1570,2013-04-22 08:16:00,
2013-04-22 04:21:00,39.4,34.1,30.46,NE,41,1.0,4.0,81,0.00,,,0.00,0,WeatherCatV1.10B1570,2013-04-22 08:21:00,
2013-04-22 04:26:00,39.3,34.3,30.46,NE,47,0.0,4.0,82,0.00,,,0.00,0,WeatherCatV1.10B1570,2013-04-22 08:26:00,
2013-04-22 04:31:00,39.2,34.2,30.46,East,81,2.0,2.0,82,0.00,,,0.00,0,WeatherCatV1.10B1570,2013-04-22 08:31:00,
2013-04-22 04:36:00,39.0,34.0,30.46,East,85,2.0,2.0,82,0.00,,,0.00,0,WeatherCatV1.10B1570,2013-04-22 08:36:00,
2013-04-22 04:41:00,38.9,33.9,30.46,ESE,109,2.0,4.0,82,0.00,,,0.00,0,WeatherCatV1.10B1570,2013-04-22 08:41:00,
2013-04-22 04:46:00,38.8,34.1,30.47,ENE,68,2.0,5.0,83,0.00,,,0.00,0,WeatherCatV1.10B1570,2013-04-22 08:46:00,
2013-04-22 04:51:00,38.8,33.8,30.46,ENE,72,0.0,1.0,82,0.00,,,0.00,0,WeatherCatV1.10B1570,2013-04-22 08:51:00,
2013-04-22 04:56:00,38.7,34.0,30.46,NE,39,3.0,4.0,83,0.00,,,0.00,0,WeatherCatV1.10B1570,2013-04-22 08:56:00,
2013-04-22 05:01:00,38.6,33.9,30.46,NW,322,3.0,4.0,83,0.00,,,0.00,0,WeatherCatV1.10B1570,2013-04-22 09:01:00,
2013-04-22 05:06:00,38.6,34.2,30.46,North,353,5.0,6.0,84,0.00,,,0.00,0,WeatherCatV1.10B1570,2013-04-22 09:06:00,
2013-04-22 05:11:00,38.6,34.2,30.47,North,1,3.0,3.0,84,0.00,,,0.00,0,WeatherCatV1.10B1570,2013-04-22 09:11:00,
2013-04-22 05:16:00,38.5,34.4,30.46,NNE,16,1.0,7.0,85,0.00,,,0.00,0,WeatherCatV1.10B1570,2013-04-22 09:16:00,
2013-04-22 05:21:00,38.4,34.3,30.47,North,7,0.0,2.0,85,0.00,,,0.00,0,WeatherCatV1.10B1570,2013-04-22 09:21:00,
2013-04-22 05:26:00,38.3,34.5,30.47,North,352,2.0,6.0,86,0.00,,,0.00,0,WeatherCatV1.10B1570,2013-04-22 09:26:00,
2013-04-22 05:31:00,38.2,34.4,30.47,NNW,343,1.0,3.0,86,0.00,,,0.00,0,WeatherCatV1.10B1570,2013-04-22 09:31:00,
2013-04-22 05:36:00,38.1,34.3,30.47,NNE,14,4.0,4.0,86,0.00,,,0.00,0,WeatherCatV1.10B1570,2013-04-22 09:36:00,
2013-04-22 05:41:00,38.0,34.5,30.47,NNE,18,1.0,4.0,87,0.00,,,0.00,0,WeatherCatV1.10B1570,2013-04-22 09:41:00,
2013-04-22 05:46:00,37.9,34.4,30.47,NNE,30,1.0,2.0,87,0.00,,,0.00,0,WeatherCatV1.10B1570,2013-04-22 09:46:00,
2013-04-22 05:51:00,37.8,34.3,30.47,North,352,3.0,3.0,87,0.00,,,0.00,0,WeatherCatV1.10B1570,2013-04-22 09:51:00,
2013-04-22 05:56:00,37.7,34.2,30.47,North,1,6.0,6.0,87,0.00,,,0.00,0,WeatherCatV1.10B1570,2013-04-22 09:56:00,
2013-04-22 06:01:00,37.6,34.4,30.48,NNE,18,1.0,4.0,88,0.00,,,0.00,0,WeatherCatV1.10B1570,2013-04-22 10:01:00,
2013-04-22 06:06:00,37.5,34.3,30.47,North,10,0.0,4.0,88,0.00,,,0.00,0,WeatherCatV1.10B1570,2013-04-22 10:06:00,
2013-04-22 06:11:00,37.5,34.3,30.48,NW,326,3.0,5.0,88,0.00,,,0.00,0,WeatherCatV1.10B1570,2013-04-22 10:11:00,
2013-04-22 06:16:00,37.4,34.5,30.48,North,1,3.0,4.0,89,0.00,,,0.00,0,WeatherCatV1.10B1570,2013-04-22 10:16:00,
2013-04-22 06:21:00,37.3,34.4,30.48,North,0,1.0,5.0,89,0.00,,,0.00,0,WeatherCatV1.10B1570,2013-04-22 10:21:00,
2013-04-22 06:26:00,37.2,34.3,30.49,North,7,1.0,4.0,89,0.00,,,0.00,0,WeatherCatV1.10B1570,2013-04-22 10:26:00,
2013-04-22 06:31:00,37.2,34.3,30.49,North,5,1.0,4.0,89,0.00,,,0.00,0,WeatherCatV1.10B1570,2013-04-22 10:31:00,
2013-04-22 06:36:00,37.1,34.2,30.49,North,11,0.0,2.0,89,0.00,,,0.00,0,WeatherCatV1.10B1570,2013-04-22 10:36:00,
2013-04-22 06:41:00,37.0,34.1,30.49,NNE,14,1.0,2.0,89,0.00,,,0.00,5,WeatherCatV1.10B1570,2013-04-22 10:41:00,
2013-04-22 06:46:00,36.9,34.2,30.49,North,353,2.0,3.0,90,0.00,,,0.00,9,WeatherCatV1.10B1570,2013-04-22 10:46:00,
2013-04-22 06:51:00,36.9,34.2,30.49,North,355,1.0,3.0,90,0.00,,,0.00,14,WeatherCatV1.10B1570,2013-04-22 10:51:00,
2013-04-22 06:56:00,36.9,34.2,30.49,North,3,1.0,6.0,90,0.00,,,0.00,19,WeatherCatV1.10B1570,2013-04-22 10:56:00,
2013-04-22 07:01:00,36.9,34.2,30.50,NW,315,4.0,4.0,90,0.00,,,0.00,26,WeatherCatV1.10B1570,2013-04-22 11:01:00,
2013-04-22 07:06:00,37.0,34.3,30.50,North,354,3.0,3.0,90,0.00,,,0.00,35,WeatherCatV1.10B1570,2013-04-22 11:06:00,
2013-04-22 07:11:00,37.1,34.4,30.50,NNW,340,4.0,5.0,90,0.00,,,0.00,46,WeatherCatV1.10B1570,2013-04-22 11:11:00,
2013-04-22 07:16:00,37.2,34.5,30.50,NNE,20,0.0,2.0,90,0.00,,,0.00,56,WeatherCatV1.10B1570,2013-04-22 11:16:00,
2013-04-22 07:21:00,37.3,34.6,30.50,North,5,2.0,2.0,90,0.00,,,0.00,69,WeatherCatV1.10B1570,2013-04-22 11:21:00,
2013-04-22 07:26:00,37.4,34.7,30.50,NNW,344,3.0,4.0,90,0.00,,,0.00,83,WeatherCatV1.10B1570,2013-04-22 11:26:00,
2013-04-22 07:31:00,37.6,34.9,30.50,NW,313,5.0,6.0,90,0.00,,,0.00,97,WeatherCatV1.10B1570,2013-04-22 11:31:00,
2013-04-22 07:36:00,37.8,34.9,30.50,NNE,17,4.0,7.0,89,0.00,,,0.00,111,WeatherCatV1.10B1570,2013-04-22 11:36:00,
2013-04-22 07:41:00,38.0,35.1,30.50,North,353,3.0,6.0,89,0.00,,,0.00,128,WeatherCatV1.10B1570,2013-04-22 11:41:00,
2013-04-22 07:46:00,38.2,35.0,30.50,NNW,332,3.0,7.0,88,0.00,,,0.00,144,WeatherCatV1.10B1570,2013-04-22 11:46:00,
2013-04-22 07:51:00,38.4,35.2,30.50,ENE,74,1.0,4.0,88,0.00,,,0.00,163,WeatherCatV1.10B1570,2013-04-22 11:51:00,
2013-04-22 07:56:00,38.7,35.2,30.50,East,99,2.0,7.0,87,0.00,,,0.00,185,WeatherCatV1.10B1570,2013-04-22 11:56:00,
2013-04-22 08:01:00,39.0,35.2,30.49,North,351,2.0,6.0,86,0.00,,,0.00,206,WeatherCatV1.10B1570,2013-04-22 12:01:00,
2013-04-22 08:06:00,39.3,35.2,30.50,East,99,3.0,11.0,85,0.00,,,0.00,223,WeatherCatV1.10B1570,2013-04-22 12:06:00,
2013-04-22 08:11:00,39.7,35.0,30.50,SW,214,0.0,9.0,83,0.00,,,0.00,239,WeatherCatV1.10B1570,2013-04-22 12:11:00,
2013-04-22 08:16:00,40.0,35.3,30.50,North,354,3.0,5.0,83,0.00,,,0.00,260,WeatherCatV1.10B1570,2013-04-22 12:16:00,
2013-04-22 08:21:00,40.4,35.3,30.50,North,7,4.0,7.0,82,0.00,,,0.00,278,WeatherCatV1.10B1570,2013-04-22 12:21:00,
2013-04-22 08:26:00,40.9,35.8,30.50,NE,47,8.0,8.0,82,0.00,,,0.00,294,WeatherCatV1.10B1570,2013-04-22 12:26:00,
2013-04-22 08:31:00,41.3,35.3,30.49,ESE,118,4.0,7.0,79,0.00,,,0.00,313,WeatherCatV1.10B1570,2013-04-22 12:31:00,
2013-04-22 08:36:00,41.8,35.8,30.49,NNW,327,3.0,8.0,79,0.00,,,0.00,332,WeatherCatV1.10B1570,2013-04-22 12:36:00,
2013-04-22 08:41:00,42.2,35.5,30.49,NE,36,5.0,7.0,77,0.00,,,0.00,350,WeatherCatV1.10B1570,2013-04-22 12:41:00,
2013-04-22 08:46:00,42.7,35.7,30.50,NE,53,2.0,6.0,76,0.00,,,0.00,367,WeatherCatV1.10B1570,2013-04-22 12:46:00,
2013-04-22 08:51:00,43.2,35.8,30.49,NNE,27,3.0,5.0,75,0.00,,,0.00,385,WeatherCatV1.10B1570,2013-04-22 12:51:00,
2013-04-22 08:56:00,43.4,35.7,30.49,East,81,4.0,4.0,74,0.00,,,0.00,404,WeatherCatV1.10B1570,2013-04-22 12:56:00,
2013-04-22 09:01:00,43.8,35.4,30.49,ENE,72,2.0,7.0,72,0.00,,,0.00,420,WeatherCatV1.10B1570,2013-04-22 13:01:00,
2013-04-22 09:06:00,44.0,35.2,30.49,NNW,328,1.0,6.0,71,0.00,,,0.00,436,WeatherCatV1.10B1570,2013-04-22 13:06:00,
2013-04-22 09:11:00,44.2,34.3,30.50,ENE,63,5.0,13.0,68,0.00,,,0.00,455,WeatherCatV1.10B1570,2013-04-22 13:11:00,
2013-04-22 09:16:00,44.4,34.5,30.49,East,90,8.0,14.0,68,0.00,,,0.00,475,WeatherCatV1.10B1570,2013-04-22 13:16:00,
2013-04-22 09:21:00,44.7,34.0,30.49,NNE,26,1.0,11.0,66,0.00,,,0.00,492,WeatherCatV1.10B1570,2013-04-22 13:21:00,
2013-04-22 09:26:00,45.0,34.0,30.49,ENE,76,6.0,14.0,65,0.00,,,0.00,508,WeatherCatV1.10B1570,2013-04-22 13:26:00,
2013-04-22 09:31:00,45.4,33.9,30.49,ENE,78,6.0,9.0,64,0.00,,,0.00,527,WeatherCatV1.10B1570,2013-04-22 13:31:00,
2013-04-22 09:36:00,45.9,33.2,30.50,ENE,63,10.0,12.0,61,0.00,,,0.00,538,WeatherCatV1.10B1570,2013-04-22 13:36:00,
2013-04-22 09:41:00,46.0,32.9,30.49,NNE,26,2.0,8.0,60,0.00,,,0.00,561,WeatherCatV1.10B1570,2013-04-22 13:41:00,
2013-04-22 09:46:00,46.4,32.9,30.49,NE,39,2.0,10.0,59,0.00,,,0.00,573,WeatherCatV1.10B1570,2013-04-22 13:46:00,
2013-04-22 09:51:00,46.9,32.5,30.49,ENE,74,2.0,8.0,57,0.00,,,0.00,594,WeatherCatV1.10B1570,2013-04-22 13:51:00,
2013-04-22 09:56:00,47.1,32.7,30.49,WNW,300,5.0,5.0,57,0.00,,,0.00,610,WeatherCatV1.10B1570,2013-04-22 13:56:00,
2013-04-22 10:01:00,47.8,32.9,30.49,NNW,338,10.0,10.0,56,0.00,,,0.00,626,WeatherCatV1.10B1570,2013-04-22 14:01:00,
2013-04-22 10:06:00,48.0,33.1,30.49,NNW,340,5.0,7.0,56,0.00,,,0.00,638,WeatherCatV1.10B1570,2013-04-22 14:06:00,
2013-04-22 10:11:00,48.0,32.2,30.49,SSW,213,4.0,10.0,54,0.00,,,0.00,656,WeatherCatV1.10B1570,2013-04-22 14:11:00,
2013-04-22 10:16:00,47.9,31.6,30.49,ESE,118,4.0,8.0,53,0.00,,,0.00,671,WeatherCatV1.10B1570,2013-04-22 14:16:00,
2013-04-22 10:21:00,48.4,32.5,30.49,East,85,6.0,11.0,54,0.00,,,0.00,689,WeatherCatV1.10B1570,2013-04-22 14:21:00,
2013-04-22 10:26:00,48.8,32.4,30.48,NNW,331,3.0,11.0,53,0.00,,,0.00,703,WeatherCatV1.10B1570,2013-04-22 14:26:00,
2013-04-22 10:31:00,49.2,32.3,30.48,North,359,3.0,6.0,52,0.00,,,0.00,721,WeatherCatV1.10B1570,2013-04-22 14:31:00,
2013-04-22 10:36:00,49.7,31.3,30.48,North,9,2.0,8.0,49,0.00,,,0.00,742,WeatherCatV1.10B1570,2013-04-22 14:36:00,
2013-04-22 10:41:00,50.0,30.0,30.48,ENE,75,5.0,10.0,46,0.00,,,0.00,765,WeatherCatV1.10B1570,2013-04-22 14:41:00,
2013-04-22 10:46:00,50.4,31.5,30.47,East,81,3.0,5.0,48,0.00,,,0.00,770,WeatherCatV1.10B1570,2013-04-22 14:46:00,
2013-04-22 10:51:00,51.5,30.9,30.47,NNE,33,4.0,7.0,45,0.00,,,0.00,775,WeatherCatV1.10B1570,2013-04-22 14:51:00,
2013-04-22 10:52:00,51.5,30.9,30.47,ESE,112,5.0,10.0,45,0.00,,,0.00,775,WeatherCatV1.10B1570,2013-04-22 14:52:00,
2013-04-22 10:57:00,51.7,29.9,30.47,North,349,4.0,8.0,43,0.00,,,0.00,786,WeatherCatV1.10B1570,2013-04-22 14:57:00,
2013-04-22 11:02:00,51.7,29.4,30.47,NE,53,2.0,6.0,42,0.00,,,0.00,798,WeatherCatV1.10B1570,2013-04-22 15:02:00,
2013-04-22 11:07:00,52.3,29.9,30.46,East,85,5.0,10.0,42,0.00,,,0.00,810,WeatherCatV1.10B1570,2013-04-22 15:07:00,
2013-04-22 11:12:00,52.5,31.2,30.46,NNW,342,4.0,6.0,44,0.00,,,0.00,817,WeatherCatV1.10B1570,2013-04-22 15:12:00,
2013-04-22 11:17:00,52.8,29.2,30.46,North,352,7.0,11.0,40,0.00,,,0.00,831,WeatherCatV1.10B1570,2013-04-22 15:17:00,
2013-04-22 11:22:00,52.2,28.6,30.46,NNE,24,2.0,11.0,40,0.00,,,0.00,844,WeatherCatV1.10B1570,2013-04-22 15:22:00,
2013-04-22 11:27:00,52.5,30.1,30.46,NE,41,2.0,8.0,42,0.00,,,0.00,856,WeatherCatV1.10B1570,2013-04-22 15:27:00,
2013-04-22 11:32:00,52.6,28.4,30.45,NNW,342,6.0,11.0,39,0.00,,,0.00,865,WeatherCatV1.10B1570,2013-04-22 15:32:00,
2013-04-22 11:37:00,52.2,29.2,30.45,NNE,20,5.0,9.0,41,0.00,,,0.00,874,WeatherCatV1.10B1570,2013-04-22 15:37:00,
2013-04-22 11:42:00,52.3,28.1,30.45,NE,43,3.0,10.0,39,0.00,,,0.00,884,WeatherCatV1.10B1570,2013-04-22 15:42:00,
2013-04-22 11:47:00,53.0,29.9,30.45,NE,42,4.0,10.0,41,0.00,,,0.00,893,WeatherCatV1.10B1570,2013-04-22 15:47:00,
2013-04-22 11:52:00,54.1,30.9,30.45,NNW,332,7.0,8.0,41,0.00,,,0.00,902,WeatherCatV1.10B1570,2013-04-22 15:52:00,
2013-04-22 11:57:00,54.4,27.3,30.45,SE,130,5.0,9.0,35,0.00,,,0.00,909,WeatherCatV1.10B1570,2013-04-22 15:57:00,
2013-04-22 12:02:00,54.8,29.0,30.45,WNW,299,3.0,5.0,37,0.00,,,0.00,918,WeatherCatV1.10B1570,2013-04-22 16:02:00,
2013-04-22 12:07:00,54.9,29.1,30.44,East,81,2.0,6.0,37,0.00,,,0.00,925,WeatherCatV1.10B1570,2013-04-22 16:07:00,
2013-04-22 12:12:00,55.3,29.5,30.44,East,85,6.0,6.0,37,0.00,,,0.00,930,WeatherCatV1.10B1570,2013-04-22 16:12:00,
2013-04-22 12:17:00,55.7,29.2,30.44,ESE,118,6.0,7.0,36,0.00,,,0.00,933,WeatherCatV1.10B1570,2013-04-22 16:17:00,
2013-04-22 12:22:00,55.6,28.4,30.44,NW,305,4.0,11.0,35,0.00,,,0.00,939,WeatherCatV1.10B1570,2013-04-22 16:22:00,
2013-04-22 12:27:00,56.0,28.7,30.43,ENE,76,2.0,5.0,35,0.00,,,0.00,947,WeatherCatV1.10B1570,2013-04-22 16:27:00,
2013-04-22 12:32:00,56.0,28.7,30.43,ESE,103,3.0,6.0,35,0.00,,,0.00,951,WeatherCatV1.10B1570,2013-04-22 16:32:00,
2013-04-22 12:37:00,56.4,27.7,30.42,NE,41,5.0,6.0,33,0.00,,,0.00,954,WeatherCatV1.10B1570,2013-04-22 16:37:00,
2013-04-22 12:42:00,56.8,28.7,30.42,NNW,348,4.0,7.0,34,0.00,,,0.00,956,WeatherCatV1.10B1570,2013-04-22 16:42:00,
2013-04-22 12:47:00,57.5,28.6,30.42,West,271,4.0,11.0,33,0.00,,,0.00,962,WeatherCatV1.10B1570,2013-04-22 16:47:00,
2013-04-22 12:52:00,57.3,28.4,30.41,ENE,71,7.0,9.0,33,0.00,,,0.00,963,WeatherCatV1.10B1570,2013-04-22 16:52:00,
2013-04-22 12:57:00,56.9,27.4,30.41,ESE,120,6.0,13.0,32,0.00,,,0.00,969,WeatherCatV1.10B1570,2013-04-22 16:57:00,
2013-04-22 13:02:00,56.0,26.6,30.41,NNE,14,6.0,7.0,32,0.00,,,0.00,967,WeatherCatV1.10B1570,2013-04-22 17:02:00,
2013-04-22 13:07:00,56.2,27.5,30.41,North,359,6.0,8.0,33,0.00,,,0.00,970,WeatherCatV1.10B1570,2013-04-22 17:07:00,
2013-04-22 13:12:00,56.6,27.8,30.40,NNW,345,2.0,6.0,33,0.00,,,0.00,972,WeatherCatV1.10B1570,2013-04-22 17:12:00,
2013-04-22 13:17:00,57.5,28.6,30.40,ENE,77,5.0,8.0,33,0.00,,,0.00,972,WeatherCatV1.10B1570,2013-04-22 17:17:00,
2013-04-22 13:22:00,57.8,27.4,30.40,NW,321,7.0,7.0,31,0.00,,,0.00,972,WeatherCatV1.10B1570,2013-04-22 17:22:00,
2013-04-22 13:27:00,58.2,27.7,30.39,NE,39,7.0,8.0,31,0.00,,,0.00,972,WeatherCatV1.10B1570,2013-04-22 17:27:00,
2013-04-22 13:32:00,58.5,26.4,30.39,NE,53,5.0,10.0,29,0.00,,,0.00,969,WeatherCatV1.10B1570,2013-04-22 17:32:00,
2013-04-22 13:37:00,58.4,29.4,30.39,ESE,103,8.0,9.0,33,0.00,,,0.00,976,WeatherCatV1.10B1570,2013-04-22 17:37:00,
2013-04-22 13:42:00,58.3,28.6,30.39,NNE,22,1.0,7.0,32,0.00,,,0.00,970,WeatherCatV1.10B1570,2013-04-22 17:42:00,
2013-04-22 13:47:00,58.6,27.3,30.38,ENE,69,2.0,8.0,30,0.00,,,0.00,967,WeatherCatV1.10B1570,2013-04-22 17:47:00,
2013-04-22 13:52:00,59.0,27.6,30.39,ENE,70,5.0,8.0,30,0.00,,,0.00,967,WeatherCatV1.10B1570,2013-04-22 17:52:00,
2013-04-22 13:57:00,58.9,28.3,30.38,NE,47,4.0,7.0,31,0.00,,,0.00,963,WeatherCatV1.10B1570,2013-04-22 17:57:00,
2013-04-22 14:02:00,59.0,29.9,30.38,NNW,345,8.0,8.0,33,0.00,,,0.00,960,WeatherCatV1.10B1570,2013-04-22 18:02:00,
2013-04-22 14:07:00,59.1,30.0,30.38,NNW,338,5.0,5.0,33,0.00,,,0.00,954,WeatherCatV1.10B1570,2013-04-22 18:07:00,
2013-04-22 14:12:00,59.3,29.4,30.38,NE,48,5.0,9.0,32,0.00,,,0.00,949,WeatherCatV1.10B1570,2013-04-22 18:12:00,
2013-04-22 14:17:00,59.9,32.2,30.38,NNW,328,6.0,8.0,35,0.00,,,0.00,947,WeatherCatV1.10B1570,2013-04-22 18:17:00,
2013-04-22 14:22:00,60.2,28.7,30.37,ENE,72,4.0,7.0,30,0.00,,,0.00,944,WeatherCatV1.10B1570,2013-04-22 18:22:00,
2013-04-22 14:27:00,59.8,29.1,30.37,East,99,6.0,13.0,31,0.00,,,0.00,939,WeatherCatV1.10B1570,2013-04-22 18:27:00,
2013-04-22 14:32:00,59.7,32.7,30.37,NE,47,4.0,5.0,36,0.00,,,0.00,933,WeatherCatV1.10B1570,2013-04-22 18:32:00,
2013-04-22 14:37:00,60.8,32.3,30.37,SE,128,5.0,7.0,34,0.00,,,0.00,932,WeatherCatV1.10B1570,2013-04-22 18:37:00,
2013-04-22 14:42:00,60.8,28.3,30.36,East,81,5.0,8.0,29,0.00,,,0.00,923,WeatherCatV1.10B1570,2013-04-22 18:42:00,
2013-04-22 14:47:00,60.5,28.9,30.36,North,5,5.0,6.0,30,0.00,,,0.00,916,WeatherCatV1.10B1570,2013-04-22 18:47:00,
2013-04-22 14:52:00,61.0,31.7,30.36,East,99,6.0,10.0,33,0.00,,,0.00,911,WeatherCatV1.10B1570,2013-04-22 18:52:00,
2013-04-22 14:57:00,60.6,29.8,30.36,NE,53,3.0,6.0,31,0.00,,,0.00,902,WeatherCatV1.10B1570,2013-04-22 18:57:00,
2013-04-22 15:02:00,60.3,29.5,30.36,ESE,102,4.0,9.0,31,0.00,,,0.00,891,WeatherCatV1.10B1570,2013-04-22 19:02:00,
2013-04-22 15:07:00,60.9,30.8,30.36,East,99,13.0,16.0,32,0.00,,,0.00,884,WeatherCatV1.10B1570,2013-04-22 19:07:00,
2013-04-22 15:12:00,60.6,29.0,30.36,NE,41,4.0,9.0,30,0.00,,,0.00,872,WeatherCatV1.10B1570,2013-04-22 19:12:00,
2013-04-22 15:17:00,60.5,29.7,30.35,ESE,114,3.0,5.0,31,0.00,,,0.00,858,WeatherCatV1.10B1570,2013-04-22 19:17:00,
2013-04-22 15:22:00,60.9,30.1,30.35,ENE,78,4.0,6.0,31,0.00,,,0.00,844,WeatherCatV1.10B1570,2013-04-22 19:22:00,
2013-04-22 15:27:00,60.9,30.1,30.35,WNW,296,7.0,7.0,31,0.00,,,0.00,835,WeatherCatV1.10B1570,2013-04-22 19:27:00,
2013-04-22 15:32:00,61.1,29.4,30.35,ENE,74,4.0,7.0,30,0.00,,,0.00,824,WeatherCatV1.10B1570,2013-04-22 19:32:00,
2013-04-22 15:37:00,61.2,29.5,30.35,East,95,5.0,8.0,30,0.00,,,0.00,816,WeatherCatV1.10B1570,2013-04-22 19:37:00,
2013-04-22 15:42:00,61.6,29.0,30.34,North,359,2.0,7.0,29,0.00,,,0.00,805,WeatherCatV1.10B1570,2013-04-22 19:42:00,
2013-04-22 15:47:00,61.9,29.3,30.34,SE,124,8.0,8.0,29,0.00,,,0.00,793,WeatherCatV1.10B1570,2013-04-22 19:47:00,
2013-04-22 15:52:00,61.5,28.1,30.34,SE,132,1.0,12.0,28,0.00,,,0.00,780,WeatherCatV1.10B1570,2013-04-22 19:52:00,
2013-04-22 15:57:00,61.8,27.5,30.33,ENE,70,6.0,7.0,27,0.00,,,0.00,765,WeatherCatV1.10B1570,2013-04-22 19:57:00,
2013-04-22 16:02:00,61.8,30.0,30.33,ENE,62,4.0,8.0,30,0.00,,,0.00,754,WeatherCatV1.10B1570,2013-04-22 20:02:00,
2013-04-22 16:07:00,62.1,30.3,30.32,NW,315,4.0,6.0,30,0.00,,,0.00,738,WeatherCatV1.10B1570,2013-04-22 20:07:00,
2013-04-22 16:12:00,62.4,28.0,30.32,NE,50,2.0,9.0,27,0.00,,,0.00,724,WeatherCatV1.10B1570,2013-04-22 20:12:00,
2013-04-22 16:17:00,62.4,28.0,30.32,ESE,103,5.0,7.0,27,0.00,,,0.00,707,WeatherCatV1.10B1570,2013-04-22 20:17:00,
2013-04-22 16:22:00,62.2,28.7,30.32,NNE,26,3.0,7.0,28,0.00,,,0.00,694,WeatherCatV1.10B1570,2013-04-22 20:22:00,
2013-04-22 16:27:00,62.2,27.8,30.32,NNW,337,4.0,7.0,27,0.00,,,0.00,679,WeatherCatV1.10B1570,2013-04-22 20:27:00,
2013-04-22 16:32:00,62.4,28.0,30.32,NNE,18,3.0,12.0,27,0.00,,,0.00,664,WeatherCatV1.10B1570,2013-04-22 20:32:00,
2013-04-22 16:37:00,62.5,28.1,30.32,ENE,69,5.0,8.0,27,0.00,,,0.00,652,WeatherCatV1.10B1570,2013-04-22 20:37:00,
2013-04-22 16:42:00,62.3,28.8,30.32,ESE,113,7.0,8.0,28,0.00,,,0.00,650,WeatherCatV1.10B1570,2013-04-22 20:42:00,
2013-04-22 16:47:00,61.8,29.2,30.32,NE,47,10.0,10.0,29,0.00,,,0.00,628,WeatherCatV1.10B1570,2013-04-22 20:47:00,
2013-04-22 16:52:00,61.8,29.2,30.32,NE,41,3.0,8.0,29,0.00,,,0.00,619,WeatherCatV1.10B1570,2013-04-22 20:52:00,
2013-04-22 16:57:00,62.0,31.0,30.31,NNE,15,5.0,8.0,31,0.00,,,0.00,585,WeatherCatV1.10B1570,2013-04-22 20:57:00,
2013-04-22 17:02:00,61.4,29.7,30.31,SSW,197,1.0,7.0,30,0.00,,,0.00,568,WeatherCatV1.10B1570,2013-04-22 21:02:00,
2013-04-22 17:07:00,61.6,29.9,30.31,NNE,32,5.0,10.0,30,0.00,,,0.00,561,WeatherCatV1.10B1570,2013-04-22 21:07:00,
2013-04-22 17:12:00,61.8,30.8,30.31,NNE,23,1.0,7.0,31,0.00,,,0.00,557,WeatherCatV1.10B1570,2013-04-22 21:12:00,
2013-04-22 17:17:00,62.3,32.1,30.31,ENE,74,4.0,4.0,32,0.00,,,0.00,570,WeatherCatV1.10B1570,2013-04-22 21:17:00,
2013-04-22 17:22:00,62.0,32.6,30.31,North,357,2.0,6.0,33,0.00,,,0.00,524,WeatherCatV1.10B1570,2013-04-22 21:22:00,
2013-04-22 17:27:00,61.9,30.9,30.31,ENE,76,3.0,6.0,31,0.00,,,0.00,503,WeatherCatV1.10B1570,2013-04-22 21:27:00,
2013-04-22 17:32:00,61.8,30.8,30.31,NNE,29,2.0,10.0,31,0.00,,,0.00,469,WeatherCatV1.10B1570,2013-04-22 21:32:00,
2013-04-22 17:37:00,61.7,31.5,30.31,ESE,110,4.0,8.0,32,0.00,,,0.00,448,WeatherCatV1.10B1570,2013-04-22 21:37:00,
2013-04-22 17:42:00,61.6,32.2,30.31,NE,45,0.0,11.0,33,0.00,,,0.00,438,WeatherCatV1.10B1570,2013-04-22 21:42:00,
2013-04-22 17:47:00,61.9,33.2,30.31,SE,132,5.0,5.0,34,0.00,,,0.00,448,WeatherCatV1.10B1570,2013-04-22 21:47:00,
2013-04-22 17:52:00,61.8,32.4,30.31,NE,36,3.0,4.0,33,0.00,,,0.00,522,WeatherCatV1.10B1570,2013-04-22 21:52:00,
2013-04-22 17:57:00,62.2,32.7,30.31,NNE,29,3.0,6.0,33,0.00,,,0.00,478,WeatherCatV1.10B1570,2013-04-22 21:57:00,
2013-04-22 18:02:00,61.7,33.0,30.30,East,90,3.0,6.0,34,0.00,,,0.00,149,WeatherCatV1.10B1570,2013-04-22 22:02:00,
2013-04-22 18:07:00,61.3,34.1,30.31,NW,304,3.0,8.0,36,0.00,,,0.00,116,WeatherCatV1.10B1570,2013-04-22 22:07:00,
2013-04-22 18:12:00,60.8,33.0,30.30,NNW,342,4.0,6.0,35,0.00,,,0.00,318,WeatherCatV1.10B1570,2013-04-22 22:12:00,
2013-04-22 18:17:00,60.8,33.7,30.30,ENE,69,2.0,6.0,36,0.00,,,0.00,295,WeatherCatV1.10B1570,2013-04-22 22:17:00,
2013-04-22 18:22:00,60.6,33.5,30.30,East,90,3.0,10.0,36,0.00,,,0.00,281,WeatherCatV1.10B1570,2013-04-22 22:22:00,
2013-04-22 18:27:00,60.3,33.9,30.30,East,80,3.0,9.0,37,0.00,,,0.00,279,WeatherCatV1.10B1570,2013-04-22 22:27:00,
2013-04-22 18:32:00,60.3,35.2,30.30,NE,36,3.0,4.0,39,0.00,,,0.00,281,WeatherCatV1.10B1570,2013-04-22 22:32:00,
2013-04-22 18:37:00,60.4,35.3,30.30,SE,131,4.0,4.0,39,0.00,,,0.00,121,WeatherCatV1.10B1570,2013-04-22 22:37:00,
2013-04-22 18:42:00,60.2,35.2,30.30,East,90,2.0,4.0,39,0.00,,,0.00,253,WeatherCatV1.10B1570,2013-04-22 22:42:00,
2013-04-22 18:47:00,60.0,35.6,30.30,NE,47,4.0,8.0,40,0.00,,,0.00,102,WeatherCatV1.10B1570,2013-04-22 22:47:00,
2013-04-22 18:52:00,59.9,35.5,30.30,NNE,18,1.0,4.0,40,0.00,,,0.00,63,WeatherCatV1.10B1570,2013-04-22 22:52:00,
2013-04-22 18:58:00,59.9,36.8,30.30,ENE,75,0.0,0.0,42,0.00,,,0.00,58,WeatherCatV1.10B1570,2013-04-22 22:58:00,
2013-04-22 19:03:00,59.7,36.6,30.31,North,8,4.0,6.0,42,0.00,,,0.00,56,WeatherCatV1.10B1570,2013-04-22 23:03:00,
2013-04-22 19:08:00,59.4,36.9,30.31,North,352,2.0,3.0,43,0.00,,,0.00,46,WeatherCatV1.10B1570,2013-04-22 23:08:00,
2013-04-22 19:13:00,59.3,36.2,30.31,ESE,103,3.0,9.0,42,0.00,,,0.00,44,WeatherCatV1.10B1570,2013-04-22 23:13:00,
2013-04-22 19:18:00,58.9,36.4,30.31,NE,46,3.0,3.0,43,0.00,,,0.00,33,WeatherCatV1.10B1570,2013-04-22 23:18:00,
2013-04-22 19:23:00,58.8,36.9,30.31,ENE,63,2.0,7.0,44,0.00,,,0.00,26,WeatherCatV1.10B1570,2013-04-22 23:23:00,
2013-04-22 19:28:00,58.6,36.2,30.31,NE,47,4.0,5.0,43,0.00,,,0.00,19,WeatherCatV1.10B1570,2013-04-22 23:28:00,
2013-04-22 19:33:00,58.3,35.9,30.31,NE,49,4.0,8.0,43,0.00,,,0.00,19,WeatherCatV1.10B1570,2013-04-22 23:33:00,
2013-04-22 19:38:00,58.1,36.3,30.31,WNW,303,0.0,4.0,44,0.00,,,0.00,16,WeatherCatV1.10B1570,2013-04-22 23:38:00,
2013-04-22 19:43:00,58.0,36.8,30.31,East,95,2.0,4.0,45,0.00,,,0.00,12,WeatherCatV1.10B1570,2013-04-22 23:43:00,
2013-04-22 19:48:00,57.8,37.2,30.31,ESE,116,8.0,8.0,46,0.00,,,0.00,9,WeatherCatV1.10B1570,2013-04-22 23:48:00,
2013-04-22 19:53:00,57.6,36.4,30.31,East,80,3.0,5.0,45,0.00,,,0.00,5,WeatherCatV1.10B1570,2013-04-22 23:53:00,
2013-04-22 19:58:00,57.4,36.8,30.31,ENE,61,5.0,6.0,46,0.00,,,0.00,0,WeatherCatV1.10B1570,2013-04-22 23:58:00,
2013-04-22 20:03:00,57.2,37.2,30.31,NNE,24,5.0,7.0,47,0.00,,,0.00,0,WeatherCatV1.10B1570,2013-04-23 00:03:00,
2013-04-22 20:08:00,57.1,37.6,30.31,East,80,4.0,5.0,48,0.00,,,0.00,0,WeatherCatV1.10B1570,2013-04-23 00:08:00,
2013-04-22 20:13:00,56.8,37.8,30.32,East,85,5.0,12.0,49,0.00,,,0.00,0,WeatherCatV1.10B1570,2013-04-23 00:13:00,
2013-04-22 20:18:00,56.6,38.2,30.32,ENE,72,5.0,8.0,50,0.00,,,0.00,0,WeatherCatV1.10B1570,2013-04-23 00:18:00,
2013-04-22 20:23:00,56.4,38.0,30.32,ENE,67,10.0,11.0,50,0.00,,,0.00,0,WeatherCatV1.10B1570,2013-04-23 00:23:00,
2013-04-22 20:28:00,56.1,38.2,30.32,ESE,109,6.0,9.0,51,0.00,,,0.00,0,WeatherCatV1.10B1570,2013-04-23 00:28:00,
2013-04-22 20:33:00,56.0,38.1,30.32,NE,55,6.0,8.0,51,0.00,,,0.00,0,WeatherCatV1.10B1570,2013-04-23 00:33:00,
2013-04-22 20:38:00,55.8,37.9,30.32,ENE,70,2.0,6.0,51,0.00,,,0.00,0,WeatherCatV1.10B1570,2013-04-23 00:38:00,
2013-04-22 20:43:00,55.7,38.3,30.32,ESE,107,2.0,3.0,52,0.00,,,0.00,0,WeatherCatV1.10B1570,2013-04-23 00:43:00,
2013-04-22 20:48:00,55.6,37.8,30.33,East,90,6.0,7.0,51,0.00,,,0.00,0,WeatherCatV1.10B1570,2013-04-23 00:48:00,
2013-04-22 20:53:00,55.5,38.2,30.32,East,95,2.0,9.0,52,0.00,,,0.00,0,WeatherCatV1.10B1570,2013-04-23 00:53:00,
2013-04-22 20:58:00,55.3,38.5,30.33,ENE,70,7.0,7.0,53,0.00,,,0.00,0,WeatherCatV1.10B1570,2013-04-23 00:58:00,
2013-04-22 21:03:00,55.1,38.3,30.33,ENE,74,7.0,11.0,53,0.00,,,0.00,0,WeatherCatV1.10B1570,2013-04-23 01:03:00,
2013-04-22 21:08:00,54.9,38.6,30.33,ESE,121,1.0,9.0,54,0.00,,,0.00,0,WeatherCatV1.10B1570,2013-04-23 01:08:00,
2013-04-22 21:13:00,54.8,38.5,30.33,ESE,109,2.0,8.0,54,0.00,,,0.00,0,WeatherCatV1.10B1570,2013-04-23 01:13:00,
2013-04-22 21:18:00,54.8,38.9,30.33,East,95,5.0,9.0,55,0.00,,,0.00,0,WeatherCatV1.10B1570,2013-04-23 01:18:00,
2013-04-22 21:23:00,54.6,38.8,30.33,East,95,4.0,11.0,55,0.00,,,0.00,0,WeatherCatV1.10B1570,2013-04-23 01:23:00,
2013-04-22 21:28:00,54.5,38.7,30.33,NE,43,4.0,7.0,55,0.00,,,0.00,0,WeatherCatV1.10B1570,2013-04-23 01:28:00,
2013-04-22 21:33:00,54.3,38.9,30.33,ENE,76,3.0,7.0,56,0.00,,,0.00,0,WeatherCatV1.10B1570,2013-04-23 01:33:00,
2013-04-22 21:38:00,54.2,38.8,30.33,ESE,118,3.0,11.0,56,0.00,,,0.00,0,WeatherCatV1.10B1570,2013-04-23 01:38:00,
2013-04-22 21:43:00,54.1,38.8,30.33,ESE,105,2.0,10.0,56,0.00,,,0.00,0,WeatherCatV1.10B1570,2013-04-23 01:43:00,
2013-04-22 21:48:00,54.0,39.1,30.34,ENE,57,3.0,6.0,57,0.00,,,0.00,0,WeatherCatV1.10B1570,2013-04-23 01:48:00,
2013-04-22 21:53:00,53.9,39.0,30.34,East,90,5.0,8.0,57,0.00,,,0.00,0,WeatherCatV1.10B1570,2013-04-23 01:53:00,
2013-04-22 21:58:00,53.8,39.4,30.34,East,95,3.0,6.0,58,0.00,,,0.00,0,WeatherCatV1.10B1570,2013-04-23 01:58:00,
2013-04-22 22:03:00,53.8,39.4,30.34,ESE,114,4.0,7.0,58,0.00,,,0.00,0,WeatherCatV1.10B1570,2013-04-23 02:03:00,
2013-04-22 22:08:00,53.7,39.3,30.34,East,85,3.0,5.0,58,0.00,,,0.00,0,WeatherCatV1.10B1570,2013-04-23 02:08:00,
2013-04-22 22:13:00,53.6,39.2,30.34,ESE,116,3.0,7.0,58,0.00,,,0.00,0,WeatherCatV1.10B1570,2013-04-23 02:13:00,
2013-04-22 22:18:00,53.5,39.1,30.34,ESE,110,3.0,6.0,58,0.00,,,0.00,0,WeatherCatV1.10B1570,2013-04-23 02:18:00,
2013-04-22 22:23:00,53.5,39.1,30.34,ESE,105,3.0,5.0,58,0.00,,,0.00,0,WeatherCatV1.10B1570,2013-04-23 02:23:00,
2013-04-22 22:28:00,53.3,39.3,30.34,East,85,9.0,9.0,59,0.00,,,0.00,0,WeatherCatV1.10B1570,2013-04-23 02:28:00,
2013-04-22 22:33:00,53.3,39.3,30.34,East,95,4.0,6.0,59,0.00,,,0.00,0,WeatherCatV1.10B1570,2013-04-23 02:33:00,
2013-04-22 22:38:00,53.2,39.2,30.34,NNE,26,2.0,7.0,59,0.00,,,0.00,0,WeatherCatV1.10B1570,2013-04-23 02:38:00,
2013-04-22 22:43:00,53.2,39.2,30.34,SE,126,4.0,5.0,59,0.00,,,0.00,0,WeatherCatV1.10B1570,2013-04-23 02:43:00,
2013-04-22 22:48:00,53.1,39.2,30.34,East,95,8.0,8.0,59,0.00,,,0.00,0,WeatherCatV1.10B1570,2013-04-23 02:48:00,
2013-04-22 22:53:00,53.1,39.6,30.34,NE,39,3.0,6.0,60,0.00,,,0.00,0,WeatherCatV1.10B1570,2013-04-23 02:53:00,
2013-04-22 22:58:00,53.0,39.5,30.34,NNE,12,3.0,8.0,60,0.00,,,0.00,0,WeatherCatV1.10B1570,2013-04-23 02:58:00,
2013-04-22 23:03:00,53.0,39.9,30.33,East,100,2.0,4.0,61,0.00,,,0.00,0,WeatherCatV1.10B1570,2013-04-23 03:03:00,
2013-04-22 23:08:00,52.9,39.8,30.33,NE,53,4.0,8.0,61,0.00,,,0.00,0,WeatherCatV1.10B1570,2013-04-23 03:08:00,
2013-04-22 23:13:00,52.8,39.7,30.33,North,355,5.0,5.0,61,0.00,,,0.00,0,WeatherCatV1.10B1570,2013-04-23 03:13:00,
2013-04-22 23:18:00,52.7,39.6,30.33,NE,44,5.0,8.0,61,0.00,,,0.00,0,WeatherCatV1.10B1570,2013-04-23 03:18:00,
2013-04-22 23:23:00,52.6,39.5,30.33,East,85,2.0,6.0,61,0.00,,,0.00,0,WeatherCatV1.10B1570,2013-04-23 03:23:00,
2013-04-22 23:28:00,52.6,40.0,30.33,NE,40,1.0,7.0,62,0.00,,,0.00,0,WeatherCatV1.10B1570,2013-04-23 03:28:00,
2013-04-22 23:33:00,52.5,39.9,30.33,ENE,70,4.0,7.0,62,0.00,,,0.00,0,WeatherCatV1.10B1570,2013-04-23 03:33:00,
2013-04-22 23:38:00,52.4,39.8,30.33,North,10,3.0,10.0,62,0.00,,,0.00,0,WeatherCatV1.10B1570,2013-04-23 03:38:00,
2013-04-22 23:43:00,52.4,39.8,30.33,East,90,11.0,11.0,62,0.00,,,0.00,0,WeatherCatV1.10B1570,2013-04-23 03:43:00,
2013-04-22 23:48:00,52.3,40.1,30.33,East,101,5.0,7.0,63,0.00,,,0.00,0,WeatherCatV1.10B1570,2013-04-23 03:48:00,
2013-04-22 23:53:00,52.2,40.0,30.33,ESE,109,5.0,8.0,63,0.00,,,0.00,0,WeatherCatV1.10B1570,2013-04-23 03:53:00,
2013-04-22 23:58:00,52.1,39.9,30.33,SSE,165,1.0,7.0,63,0.00,,,0.00,0,WeatherCatV1.10B1570,2013-04-23 03:58:00,